QPF
0.04 0.04 0.05 0.04 0.05 0.07 0.07 0.08 0.09 0.08 0.06 0.05 0.04 0.05 0.06 0.04 0.05 0.05 0.03 0.02 0.02 0.03 0.03 0.03 0.03 0.03 0.03 0.03 0.03 0.03 0.02 0.02 0.02 0.01 0.01 0.01 0.01 0.01 0.01 0.01 0.02 0.02 0.02
0.05 0.05 0.06 0.06 0.05 0.07 0.07 0.08 0.08 0.08 0.08 0.06 0.04 0.04 0.04 0.05 0.05 0.06 0.05 0.03 0.02 0.02 0.02 0.03 0.03 0.03 0.03 0.03 0.02 0.02 0.02 0.02 0.01 0.01 0.01 0.01 0.01 0.02 0.01 0.02 0.02 0.02 0.02
0.03 0.04 0.05 0.07 0.07 0.07 0.07 0.07 0.07 0.07 0.07 0.06 0.05 0.04 0.03 0.04 0.05 0.05 0.06 0.05 0.04 0.03 0.02 0.02 0.03 0.03 0.03 0.03 0.03 0.03 0.02 0.02 0.02 0.02 0.01 0.01 0.01 0.01 0.02 0.02 0.02 0.03 0.02
0.02 0.02 0.03 0.06 0.07 0.06 0.07 0.06 0.06 0.06 0.05 0.05 0.04 0.04 0.03 0.04 0.05 0.06 0.06 0.06 0.05 0.05 0.04 0.03 0.03 0.03 0.03 0.03 0.03 0.03 0.03 0.04 0.04 0.04 0.03 0.01 0.01 0.01 0.02 0.03 0.03 0.04 0.05
0.02 0.02 0.03 0.04 0.06 0.06 0.06 0.05 0.05 0.04 0.04 0.04 0.04 0.04 0.03 0.03 0.04 0.05 0.06 0.07 0.07 0.06 0.06 0.05 0.05 0.05 0.05 0.04 0.04 0.04 0.04 0.05 0.04 0.04 0.03 0.02 0.01 0.01 0.02 0.02 0.03 0.03 0.04
0.02 0.02 0.03 0.04 0.05 0.06 0.05 0.04 0.04 0.04 0.04 0.03 0.04 0.04 0.03 0.02 0.03 0.04 0.05 0.05 0.06 0.06 0.07 0.07 0.06 0.06 0.06 0.05 0.04 0.04 0.04 0.05 0.04 0.04 0.03 0.02 0.02 0.02 0.02 0.02 0.03 0.03 0.04
0.02 0.02 0.02 0.03 0.04 0.05 0.05 0.04 0.03 0.04 0.03 0.03 0.03 0.03 0.03 0.03 0.03 0.03 0.04 0.04 0.04 0.05 0.05 0.07 0.07 0.06 0.05 0.04 0.04 0.04 0.04 0.04 0.04 0.04 0.03 0.02 0.02 0.02 0.02 0.03 0.03 0.03 0.03
0.02 0.02 0.02 0.02 0.03 0.04 0.05 0.04 0.03 0.03 0.03 0.03 0.03 0.03 0.03 0.03 0.04 0.04 0.04 0.04 0.04 0.06 0.06 0.06 0.06 0.06 0.06 0.05 0.04 0.04 0.04 0.04 0.04 0.03 0.04 0.03 0.03 0.02 0.03 0.03 0.03 0.04 0.04
0.02 0.03 0.03 0.03 0.02 0.03 0.04 0.04 0.03 0.03 0.03 0.03 0.02 0.02 0.02 0.03 0.04 0.04 0.05 0.04 0.05 0.06 0.06 0.06 0.05 0.06 0.07 0.07 0.06 0.05 0.04 0.04 0.04 0.05 0.06 0.06 0.06 0.06 0.06 0.07 0.08 0.08 0.08
0.03 0.02 0.02 0.02 0.02 0.02 0.03 0.03 0.03 0.03 0.03 0.03 0.02 0.02 0.02 0.03 0.04 0.04 0.04 0.04 0.05 0.05 0.05 0.06 0.06 0.06 0.06 0.07 0.07 0.06 0.05 0.04 0.04 0.04 0.04 0.05 0.05 0.05 0.05 0.06 0.07 0.07 0.06
0.02 0.02 0.02 0.02 0.02 0.02 0.02 0.02 0.03 0.03 0.03 0.03 0.03 0.02 0.02 0.02 0.04 0.04 0.03 0.03 0.05 0.05 0.04 0.04 0.05 0.07 0.07 0.07 0.06 0.06 0.05 0.05 0.04 0.04 0.04 0.04 0.04 0.04 0.05 0.05 0.06 0.05 0.05
0.01 0.02 0.02 0.02 0.02 0.02 0.03 0.03 0.03 0.04 0.04 0.04 0.04 0.04 0.03 0.03 0.04 0.04 0.04 0.04 0.04 0.04 0.04 0.04 0.04 0.05 0.06 0.06 0.07 0.06 0.06 0.06 0.06 0.05 0.04 0.04 0.04 0.05 0.05 0.05 0.07 0.06 0.04
0.01 0.02 0.02 0.02 0.02 0.03 0.03 0.03 0.03 0.03 0.04 0.04 0.04 0.04 0.04 0.04 0.05 0.05 0.05 0.05 0.05 0.05 0.04 0.05 0.05 0.05 0.05 0.06 0.06 0.07 0.07 0.07 0.06 0.05 0.04 0.04 0.04 0.05 0.05 0.06 0.06 0.06 0.06
0.01 0.02 0.02 0.02 0.02 0.02 0.03 0.04 0.03 0.02 0.02 0.03 0.03 0.03 0.04 0.04 0.04 0.04 0.04 0.04 0.05 0.05 0.06 0.06 0.06 0.06 0.06 0.06 0.06 0.06 0.06 0.06 0.06 0.05 0.04 0.04 0.04 0.04 0.05 0.05 0.05 0.06 0.06
0.02 0.02 0.02 0.02 0.02 0.02 0.03 0.03 0.04 0.03 0.02 0.02 0.02 0.03 0.03 0.03 0.03 0.03 0.03 0.03 0.04 0.04 0.05 0.04 0.05 0.05 0.05 0.06 0.06 0.05 0.05 0.06 0.06 0.05 0.05 0.05 0.04 0.04 0.04 0.05 0.05 0.05 0.05
0.02 0.02 0.02 0.02 0.02 0.01 0.02 0.03 0.04 0.04 0.03 0.03 0.02 0.02 0.02 0.03 0.04 0.05 0.05 0.04 0.04 0.05 0.05 0.05 0.05 0.05 0.04 0.04 0.04 0.04 0.04 0.04 0.04 0.05 0.05 0.05 0.05 0.04 0.04 0.05 0.05 0.05 0.05
0.02 0.02 0.02 0.02 0.02 0.01 0.01 0.02 0.03 0.04 0.04 0.04 0.04 0.04 0.04 0.04 0.05 0.05 0.05 0.05 0.05 0.05 0.05 0.04 0.04 0.04 0.04 0.04 0.04 0.04 0.04 0.05 0.05 0.05 0.05 0.05 0.05 0.05 0.05 0.04 0.04 0.05 0.05
0.01 0.02 0.02 0.02 0.02 0.02 0.02 0.02 0.02 0.02 0.03 0.04 0.05 0.05 0.04 0.04 0.05 0.05 0.05 0.05 0.05 0.05 0.04 0.04 0.03 0.03 0.03 0.03 0.04 0.04 0.04 0.05 0.05 0.05 0.05 0.05 0.05 0.05 0.05 0.05 0.04 0.04 0.04
0.01 0.02 0.02 0.02 0.02 0.02 0.02 0.02 0.02 0.02 0.02 0.03 0.04 0.04 0.04 0.04 0.04 0.04 0.04 0.04 0.03 0.03 0.03 0.03 0.03 0.03 0.03 0.03 0.03 0.04 0.04 0.04 0.04 0.04 0.05 0.05 0.05 0.05 0.05 0.05 0.05 0.04 0.04
0.02 0.02 0.02 0.02 0.03 0.03 0.03 0.02 0.03 0.03 0.03 0.03 0.03 0.03 0.04 0.04 0.04 0.04 0.04 0.03 0.03 0.03 0.03 0.02 0.02 0.02 0.02 0.02 0.03 0.03 0.03 0.04 0.04 0.04 0.04 0.04 0.05 0.05 0.05 0.05 0.05 0.04 0.04
0.02 0.02 0.02 0.02 0.03 0.03 0.03 0.03 0.03 0.03 0.04 0.04 0.04 0.04 0.04 0.04 0.04 0.04 0.04 0.03 0.03 0.03 0.02 0.02 0.02 0.02 0.02 0.02 0.02 0.03 0.03 0.03 0.03 0.04 0.04 0.04 0.04 0.04 0.04 0.04 0.04 0.04 0.04
0.01 0.02 0.02 0.02 0.03 0.03 0.03 0.03 0.03 0.04 0.03 0.03 0.04 0.04 0.04 0.03 0.03 0.03 0.04 0.03 0.03 0.03 0.02 0.02 0.02 0.02 0.02 0.02 0.02 0.02 0.02 0.02 0.02 0.03 0.03 0.03 0.03 0.03 0.03 0.04 0.04 0.04 0.04
0.01 0.01 0.01 0.02 0.02 0.02 0.03 0.03 0.03 0.03 0.03 0.03 0.03 0.03 0.03 0.02 0.03 0.03 0.03 0.03 0.03 0.03 0.02 0.02 0.02 0.02 0.02 0.02 0.01 0.01 0.02 0.02 0.02 0.02 0.02 0.02 0.03 0.03 0.03 0.03 0.03 0.03 0.03
0.01 0.01 0.01 0.01 0.02 0.02 0.03 0.03 0.03 0.03 0.02 0.02 0.02 0.02 0.02 0.02 0.02 0.03 0.03 0.02 0.02 0.02 0.02 0.02 0.02 0.02 0.02 0.02 0.01 0.01 0.01 0.01 0.02 0.02 0.02 0.02 0.02 0.02 0.02 0.02 0.02 0.02 0.03
0.01 0.01 0.02 0.02 0.02 0.02 0.03 0.03 0.03 0.03 0.02 0.02 0.02 0.02 0.02 0.02 0.03 0.03 0.02 0.02 0.02 0.02 0.02 0.02 0.02 0.01 0.01 0.01 0.01 0.01 0.01 0.01 0.02 0.02 0.02 0.02 0.02 0.02 0.02 0.02 0.02 0.02 0.02
0.01 0.01 0.02 0.02 0.02 0.02 0.02 0.03 0.03 0.03 0.03 0.03 0.03 0.03 0.03 0.02 0.02 0.02 0.02 0.02 0.02 0.02 0.02 0.02 0.02 0.01 0.01 0.01 0.01 0.01 0.01 0.01 0.02 0.02 0.02 0.02 0.02 0.02 0.02 0.02 0.02 0.02 0.02
MSLP
1012.27 1013.14 1013.94 1014.65 1015.30 1015.91 1016.50 1017.11 1017.74 1018.40 1019.07 1019.75 1020.41 1021.03 1021.62 1022.18 1022.72 1023.25 1023.79 1024.35 1024.93 1025.53 1026.12 1026.68 1027.20 1027.66 1028.05 1028.36 1028.62 1028.82 1029.00 1029.16 1029.33 1029.51 1029.71 1029.93 1030.15 1030.39 1030.62 1030.85 1031.07 1031.28 1031.47
1011.50 1012.33 1013.14 1013.93 1014.67 1015.37 1016.06 1016.73 1017.39 1018.06 1018.72 1019.36 1019.98 1020.57 1021.14 1021.68 1022.22 1022.76 1023.33 1023.93 1024.54 1025.17 1025.79 1026.38 1026.92 1027.38 1027.78 1028.09 1028.34 1028.54 1028.71 1028.87 1029.04 1029.22 1029.42 1029.64 1029.87 1030.11 1030.35 1030.59 1030.81 1031.02 1031.22
1010.94 1011.65 1012.42 1013.21 1013.99 1014.76 1015.50 1016.24 1016.95 1017.64 1018.30 1018.94 1019.53 1020.10 1020.64 1021.16 1021.69 1022.24 1022.81 1023.41 1024.05 1024.69 1025.33 1025.94 1026.49 1026.98 1027.39 1027.72 1027.98 1028.19 1028.37 1028.54 1028.71 1028.89 1029.09 1029.31 1029.54 1029.78 1030.02 1030.25 1030.47 1030.67 1030.86
1010.69 1011.21 1011.84 1012.54 1013.30 1014.07 1014.85 1015.62 1016.37 1017.09 1017.78 1018.43 1019.03 1019.58 1020.11 1020.63 1021.14 1021.68 1022.24 1022.84 1023.47 1024.11 1024.76 1025.38 1025.94 1026.45 1026.88 1027.24 1027.52 1027.76 1027.96 1028.14 1028.32 1028.51 1028.71 1028.93 1029.16 1029.39 1029.62 1029.84 1030.05 1030.25 1030.44
1010.77 1011.03 1011.46 1012.00 1012.64 1013.35 1014.10 1014.88 1015.65 1016.41 1017.13 1017.80 1018.43 1019.01 1019.54 1020.06 1020.57 1021.09 1021.64 1022.22 1022.83 1023.47 1024.10 1024.72 1025.30 1025.82 1026.27 1026.65 1026.97 1027.23 1027.46 1027.66 1027.86 1028.06 1028.27 1028.49 1028.72 1028.94 1029.16 1029.38 1029.58 1029.78 1029.98
1011.18 1011.15 1011.30 1011.62 1012.08 1012.66 1013.33 1014.06 1014.82 1015.59 1016.34 1017.06 1017.73 1018.35 1018.92 1019.45 1019.97 1020.49 1021.02 1021.59 1022.17 1022.78 1023.40 1024.00 1024.57 1025.10 1025.57 1025.98 1026.32 1026.62 1026.87 1027.10 1027.33 1027.55 1027.77 1028.00 1028.23 1028.46 1028.68 1028.90 1029.12 1029.32 1029.54
1011.86 1011.53 1011.39 1011.44 1011.67 1012.06 1012.59 1013.23 1013.94 1014.70 1015.47 1016.22 1016.94 1017.61 1018.22 1018.79 1019.34 1019.86 1020.39 1020.93 1021.49 1022.07 1022.66 1023.24 1023.81 1024.33 1024.81 1025.23 1025.60 1025.92 1026.21 1026.47 1026.72 1026.97 1027.21 1027.46 1027.71 1027.96 1028.21 1028.45 1028.69 1028.92 1029.16
1012.72 1012.13 1011.71 1011.48 1011.46 1011.62 1011.97 1012.48 1013.10 1013.81 1014.57 1015.34 1016.10 1016.81 1017.47 1018.08 1018.65 1019.18 1019.71 1020.24 1020.78 1021.33 1021.89 1022.45 1023.00 1023.51 1023.99 1024.43 1024.82 1025.17 1025.48 1025.77 1026.06 1026.33 1026.61 1026.90 1027.19 1027.48 1027.77 1028.06 1028.34 1028.61 1028.89
1013.67 1012.87 1012.21 1011.74 1011.46 1011.40 1011.55 1011.89 1012.40 1013.02 1013.74 1014.49 1015.25 1015.98 1016.67 1017.31 1017.90 1018.45 1018.98 1019.50 1020.02 1020.55 1021.08 1021.62 1022.15 1022.66 1023.14 1023.58 1023.99 1024.36 1024.71 1025.03 1025.35 1025.67 1026.00 1026.34 1026.68 1027.03 1027.38 1027.73 1028.07 1028.41 1028.73
1014.62 1013.68 1012.85 1012.18 1011.69 1011.42 1011.38 1011.54 1011.90 1012.41 1013.04 1013.74 1014.47 1015.19 1015.88 1016.52 1017.11 1017.66 1018.18 1018.68 1019.19 1019.70 1020.21 1020.73 1021.25 1021.76 1022.25 1022.70 1023.13 1023.53 1023.91 1024.27 1024.63 1025.00 1025.38 1025.78 1026.19 1026.62 1027.05 1027.47 1027.88 1028.28 1028.66
1015.48 1014.48 1013.56 1012.75 1012.11 1011.68 1011.46 1011.46 1011.66 1012.03 1012.55 1013.15 1013.81 1014.47 1015.12 1015.73 1016.29 1016.82 1017.32 1017.80 1018.28 1018.78 1019.28 1019.79 1020.31 1020.83 1021.33 1021.81 1022.26 1022.69 1023.10 1023.51 1023.92 1024.33 1024.77 1025.23 1025.72 1026.22 1026.73 1027.23 1027.73 1028.19 1028.63
1016.19 1015.21 1014.26 1013.40 1012.67 1012.11 1011.76 1011.61 1011.67 1011.90 1012.28 1012.76 1013.31 1013.88 1014.44 1014.98 1015.49 1015.97 1016.42 1016.88 1017.33 1017.81 1018.30 1018.82 1019.34 1019.87 1020.40 1020.91 1021.40 1021.86 1022.32 1022.77 1023.22 1023.69 1024.18 1024.70 1025.25 1025.82 1026.40 1026.98 1027.55 1028.09 1028.58
1016.73 1015.81 1014.89 1014.03 1013.27 1012.66 1012.22 1011.96 1011.89 1011.99 1012.23 1012.58 1012.99 1013.44 1013.89 1014.33 1014.75 1015.15 1015.55 1015.96 1016.38 1016.84 1017.32 1017.84 1018.39 1018.94 1019.50 1020.05 1020.58 1021.09 1021.58 1022.07 1022.56 1023.07 1023.60 1024.17 1024.77 1025.40 1026.04 1026.69 1027.32 1027.92 1028.47
1017.06 1016.23 1015.39 1014.58 1013.84 1013.22 1012.74 1012.42 1012.26 1012.25 1012.37 1012.58 1012.86 1013.17 1013.49 1013.82 1014.13 1014.45 1014.78 1015.12 1015.51 1015.94 1016.42 1016.94 1017.51 1018.09 1018.68 1019.27 1019.84 1020.39 1020.92 1021.44 1021.96 1022.50 1023.06 1023.66 1024.29 1024.95 1025.64 1026.33 1027.02 1027.67 1028.27
1017.18 1016.45 1015.70 1014.97 1014.30 1013.71 1013.25 1012.91 1012.70 1012.62 1012.64 1012.74 1012.90 1013.08 1013.28 1013.49 1013.70 1013.92 1014.17 1014.46 1014.80 1015.20 1015.67 1016.20 1016.77 1017.38 1018.01 1018.62 1019.23 1019.81 1020.38 1020.92 1021.46 1022.01 1022.58 1023.19 1023.83 1024.51 1025.22 1025.94 1026.66 1027.35 1028.00
1017.11 1016.47 1015.82 1015.19 1014.61 1014.10 1013.68 1013.37 1013.16 1013.04 1013.00 1013.03 1013.09 1013.18 1013.28 1013.38 1013.50 1013.64 1013.82 1014.05 1014.34 1014.72 1015.17 1015.69 1016.27 1016.89 1017.54 1018.18 1018.81 1019.42 1020.00 1020.55 1021.10 1021.65 1022.22 1022.82 1023.45 1024.13 1024.84 1025.57 1026.31 1027.04 1027.73
1016.91 1016.35 1015.80 1015.27 1014.79 1014.37 1014.03 1013.78 1013.60 1013.49 1013.43 1013.42 1013.44 1013.46 1013.49 1013.52 1013.57 1013.65 1013.77 1013.94 1014.20 1014.54 1014.97 1015.48 1016.06 1016.68 1017.33 1017.98 1018.62 1019.23 1019.82 1020.38 1020.92 1021.46 1022.01 1022.59 1023.22 1023.88 1024.58 1025.31 1026.06 1026.81 1027.53
1016.65 1016.16 1015.70 1015.27 1014.90 1014.58 1014.34 1014.16 1014.04 1013.97 1013.93 1013.92 1013.92 1013.92 1013.92 1013.91 1013.92 1013.96 1014.04 1014.18 1014.41 1014.72 1015.12 1015.61 1016.16 1016.77 1017.41 1018.05 1018.68 1019.29 1019.87 1020.42 1020.95 1021.48 1022.02 1022.58 1023.18 1023.83 1024.52 1025.25 1026.00 1026.75 1027.50
1016.40 1015.98 1015.60 1015.27 1015.00 1014.79 1014.65 1014.55 1014.51 1014.50 1014.51 1014.53 1014.54 1014.55 1014.55 1014.54 1014.54 1014.56 1014.63 1014.75 1014.95 1015.24 1015.61 1016.07 1016.59 1017.17 1017.78 1018.40 1019.02 1019.61 1020.18 1020.71 1021.23 1021.75 1022.27 1022.82 1023.40 1024.03 1024.71 1025.43 1026.18 1026.94 1027.69
1016.24 1015.89 1015.59 1015.36 1015.19 1015.08 1015.03 1015.02 1015.05 1015.10 1015.17 1015.23 1015.29 1015.33 1015.35 1015.37 1015.38 1015.42 1015.49 1015.61 1015.80 1016.06 1016.41 1016.83 1017.32 1017.86 1018.44 1019.02 1019.61 1020.18 1020.73 1021.25 1021.76 1022.26 1022.78 1023.31 1023.89 1024.51 1025.18 1025.88 1026.62 1027.37 1028.12
1016.22 1015.95 1015.74 1015.60 1015.52 1015.50 1015.52 1015.59 1015.68 1015.80 1015.92 1016.03 1016.13 1016.22 1016.28 1016.34 1016.39 1016.46 1016.55 1016.68 1016.87 1017.12 1017.45 1017.84 1018.29 1018.79 1019.32 1019.87 1020.42 1020.96 1021.48 1021.99 1022.49 1022.99 1023.50 1024.04 1024.61 1025.22 1025.87 1026.57 1027.29 1028.03 1028.76
1016.36 1016.18 1016.06 1016.00 1016.00 1016.04 1016.13 1016.25 1016.40 1016.56 1016.72 1016.88 1017.03 1017.16 1017.28 1017.39 1017.49 1017.60 1017.72 1017.88 1018.08 1018.33 1018.64 1019.01 1019.42 1019.88 1020.37 1020.88 1021.39 1021.90 1022.40 1022.89 1023.38 1023.88 1024.38 1024.91 1025.48 1026.08 1026.73 1027.40 1028.10 1028.81 1029.51
1016.65 1016.56 1016.52 1016.54 1016.59 1016.69 1016.82 1016.98 1017.16 1017.34 1017.54 1017.73 1017.92 1018.10 1018.27 1018.43 1018.59 1018.75 1018.92 1019.12 1019.34 1019.60 1019.90 1020.25 1020.63 1021.06 1021.50 1021.97 1022.44 1022.92 1023.40 1023.87 1024.34 1024.83 1025.33 1025.85 1026.40 1026.99 1027.62 1028.27 1028.94 1029.61 1030.27
1017.02 1017.02 1017.06 1017.13 1017.24 1017.37 1017.53 1017.70 1017.89 1018.10 1018.31 1018.53 1018.75 1018.97 1019.19 1019.41 1019.63 1019.84 1020.07 1020.30 1020.56 1020.83 1021.14 1021.47 1021.84 1022.23 1022.64 1023.07 1023.50 1023.94 1024.39 1024.84 1025.29 1025.75 1026.23 1026.74 1027.27 1027.83 1028.42 1029.04 1029.67 1030.31 1030.92
1017.42 1017.50 1017.59 1017.72 1017.86 1018.01 1018.18 1018.36 1018.56 1018.77 1018.99 1019.23 1019.48 1019.75 1020.01 1020.28 1020.56 1020.83 1021.11 1021.39 1021.67 1021.97 1022.29 1022.62 1022.96 1023.33 1023.71 1024.10 1024.49 1024.90 1025.30 1025.71 1026.13 1026.56 1027.01 1027.48 1027.98 1028.50 1029.06 1029.63 1030.22 1030.81 1031.38
1017.79 1017.92 1018.07 1018.22 1018.39 1018.56 1018.73 1018.92 1019.12 1019.33 1019.57 1019.83 1020.11 1020.40 1020.72 1021.04 1021.36 1021.69 1022.01 1022.34 1022.66 1022.98 1023.30 1023.62 1023.96 1024.30 1024.64 1024.99 1025.35 1025.71 1026.07 1026.43 1026.81 1027.19 1027.59 1028.02 1028.47 1028.94 1029.45 1029.98 1030.51 1031.06 1031.59
Thickness
5438 5440 5443 5445 5447 5448 5450 5452 5453 5454 5455 5456 5457 5458 5460 5460 5462 5463 5466 5467 5469 5470 5470 5471 5472 5471 5471 5472 5473 5473 5474 5475 5477 5478 5475 5473 5472 5472 5472 5472 5473 5473 5473
5427 5429 5431 5434 5436 5438 5440 5441 5443 5444 5445 5446 5446 5448 5449 5450 5451 5453 5455 5456 5458 5459 5460 5460 5461 5460 5460 5461 5461 5461 5462 5462 5463 5464 5463 5462 5462 5461 5461 5461 5461 5462 5462
5415 5418 5421 5423 5425 5427 5429 5431 5432 5433 5434 5435 5436 5438 5439 5440 5441 5443 5444 5446 5447 5449 5449 5450 5450 5449 5449 5450 5450 5450 5450 5449 5449 5451 5451 5450 5450 5450 5449 5449 5450 5451 5451
5404 5408 5411 5413 5414 5416 5418 5420 5421 5423 5424 5425 5426 5427 5428 5429 5430 5431 5433 5434 5435 5437 5438 5439 5439 5439 5439 5438 5438 5438 5437 5437 5437 5438 5438 5438 5438 5438 5437 5439 5439 5440 5440
5395 5397 5399 5401 5403 5405 5407 5409 5410 5411 5412 5414 5415 5416 5417 5418 5419 5421 5421 5423 5424 5425 5426 5426 5427 5427 5427 5426 5426 5427 5426 5426 5426 5426 5427 5427 5427 5426 5428 5428 5428 5429 5429
5385 5387 5389 5391 5393 5394 5396 5397 5398 5400 5401 5402 5403 5405 5406 5407 5408 5409 5410 5411 5411 5412 5413 5414 5414 5414 5414 5414 5415 5415 5416 5415 5416 5416 5417 5417 5418 5418 5417 5416 5417 5417 5419
5374 5377 5379 5381 5383 5384 5384 5385 5387 5388 5389 5390 5391 5393 5395 5396 5397 5398 5397 5398 5399 5400 5401 5401 5402 5402 5402 5402 5402 5402 5403 5404 5405 5406 5407 5408 5407 5407 5406 5405 5405 5406 5407
5365 5367 5369 5370 5371 5372 5373 5374 5375 5376 5378 5379 5380 5381 5383 5384 5385 5386 5386 5386 5387 5388 5388 5388 5389 5390 5390 5390 5389 5390 5391 5392 5392 5393 5395 5395 5394 5393 5393 5393 5393 5391 5390
5355 5357 5358 5359 5360 5361 5362 5363 5363 5364 5365 5366 5367 5369 5370 5372 5373 5374 5373 5374 5374 5375 5375 5375 5376 5377 5378 5378 5377 5377 5378 5378 5378 5378 5379 5379 5379 5380 5379 5378 5378 5378 5379
5345 5346 5346 5347 5349 5350 5350 5350 5350 5351 5352 5353 5354 5356 5358 5360 5361 5362 5361 5362 5362 5363 5363 5363 5363 5364 5365 5365 5364 5365 5365 5365 5365 5364 5365 5365 5365 5366 5366 5366 5367 5367 5367
5333 5334 5335 5335 5336 5337 5337 5337 5338 5338 5339 5340 5342 5343 5345 5347 5349 5349 5349 5350 5350 5350 5351 5351 5351 5351 5352 5352 5352 5353 5353 5352 5351 5351 5351 5352 5352 5352 5353 5353 5353 5353 5354
5322 5323 5323 5323 5323 5324 5324 5325 5325 5326 5327 5328 5329 5331 5333 5335 5336 5337 5338 5338 5338 5338 5339 5339 5340 5339 5340 5339 5339 5340 5339 5338 5338 5338 5339 5339 5339 5339 5339 5339 5339 5339 5338
5311 5312 5312 5312 5312 5312 5313 5314 5314 5315 5316 5317 5319 5321 5322 5323 5324 5325 5326 5326 5326 5325 5325 5326 5326 5326 5326 5326 5326 5326 5325 5325 5325 5325 5326 5326 5326 5325 5324 5324 5323 5323 5322
5301 5301 5302 5302 5302 5302 5303 5304 5304 5305 5305 5306 5308 5309 5310 5311 5313 5313 5314 5314 5314 5313 5312 5312 5312 5313 5313 5313 5312 5312 5312 5312 5312 5312 5313 5312 5310 5310 5310 5311 5310 5309 5307
5291 5291 5291 5292 5292 5292 5292 5293 5293 5294 5295 5296 5297 5298 5299 5300 5302 5302 5303 5303 5303 5303 5301 5299 5299 5300 5300 5299 5299 5299 5298 5298 5298 5298 5297 5297 5297 5297 5296 5295 5295 5294 5293
5281 5282 5282 5283 5283 5283 5283 5283 5282 5283 5283 5284 5285 5285 5286 5288 5288 5290 5290 5291 5291 5291 5289 5288 5287 5287 5287 5286 5286 5286 5285 5284 5284 5284 5283 5283 5283 5283 5282 5281 5280 5280 5279
5272 5273 5273 5273 5274 5274 5273 5273 5273 5272 5271 5272 5273 5273 5274 5274 5275 5277 5277 5278 5278 5278 5277 5277 5275 5274 5274 5273 5273 5272 5270 5270 5270 5270 5270 5269 5269 5268 5268 5267 5266 5265 5263
5263 5264 5264 5264 5264 5263 5263 5263 5262 5262 5261 5261 5261 5261 5262 5262 5262 5263 5264 5264 5264 5264 5264 5263 5262 5261 5260 5259 5258 5257 5256 5255 5255 5256 5256 5255 5255 5254 5254 5253 5252 5251 5249
5255 5255 5255 5254 5254 5253 5252 5251 5251 5250 5250 5250 5249 5249 5249 5249 5249 5250 5250 5251 5252 5251 5250 5249 5248 5247 5246 5245 5244 5243 5242 5242 5241 5241 5241 5241 5241 5240 5240 5239 5238 5236 5235
5244 5245 5244 5243 5242 5242 5241 5240 5240 5239 5238 5238 5238 5238 5237 5237 5237 5237 5237 5237 5237 5237 5236 5235 5234 5233 5232 5231 5230 5230 5229 5228 5228 5227 5227 5226 5226 5226 5226 5225 5223 5222 5221
5234 5234 5233 5232 5231 5231 5230 5230 5229 5228 5228 5228 5227 5226 5226 5225 5225 5224 5224 5224 5224 5223 5222 5222 5220 5219 5219 5218 5218 5217 5216 5216 5215 5214 5213 5213 5212 5212 5211 5211 5210 5208 5206
5224 5223 5223 5222 5221 5220 5220 5219 5218 5218 5217 5217 5216 5215 5214 5213 5212 5212 5212 5212 5211 5210 5209 5209 5208 5208 5207 5206 5205 5205 5204 5203 5202 5201 5200 5199 5198 5198 5197 5196 5195 5194 5192
5215 5214 5213 5212 5211 5211 5209 5208 5207 5207 5206 5206 5205 5204 5203 5203 5202 5201 5200 5199 5199 5198 5198 5197 5197 5196 5195 5194 5193 5193 5192 5191 5190 5189 5188 5187 5185 5184 5183 5182 5180 5179 5178
5204 5204 5203 5202 5201 5200 5199 5198 5197 5197 5196 5195 5194 5194 5192 5192 5191 5190 5189 5189 5188 5187 5187 5186 5186 5185 5184 5183 5182 5181 5181 5180 5178 5177 5176 5175 5173 5172 5170 5169 5167 5165 5163
5194 5193 5192 5191 5191 5190 5189 5188 5187 5186 5186 5185 5184 5183 5182 5181 5181 5180 5179 5178 5178 5177 5177 5176 5175 5175 5174 5173 5172 5172 5171 5170 5168 5167 5165 5163 5161 5159 5158 5156 5154 5152 5150
5184 5183 5182 5181 5180 5180 5179 5179 5178 5177 5176 5175 5174 5173 5172 5171 5170 5170 5169 5168 5167 5167 5166 5166 5166 5165 5164 5163 5163 5162 5161 5160 5159 5157 5155 5153 5150 5148 5146 5144 5142 5140 5138